Regional Weather Roundup
Issued by NWS Charleston, SC

Current Version | Previous Version | Graphics & Text | Print | Product List | Glossary On
Versions: 1 2 3 4 5 6 7 8 9 10 11 12 13 14 15 16 17 18 19 20 21 22 23 24 25 26 27 28 29 30 31 32 33 34 35 36 37 38 39 40 41 42 43 44 45 46 47 48 49 50
741
ASUS42 KCHS 091612
RWRCHS

REGIONAL WEATHER ROUNDUP
NATIONAL WEATHER SERVICE CHARLESTON SC
1100 AM EST TUE FEB 09 2016

NOTE: "FAIR" INDICATES FEW OR NO CLOUDS BELOW 12,000 FEET WITH NO
SIGNIFICANT WEATHER AND/OR OBSTRUCTIONS TO VISIBILITY.

NOT ALL STATIONS ARE QUALITY CONTROLLED BY THE NATIONAL
WEATHER SERVICE. USE DATA WITH CAUTION...ESPECIALLY
DEWPOINT OBSERVATIONS.

NOTICE: OBSERVATIONS FOR THE SAVANNAH-HILTON HEAD INTERNATIONAL AIRPORT
/KSAV/ HAVE BEEN TEMPORARILY REMOVED DUE TO AN ERRONEOUS TEMPERATURE
SENSOR. THE OBSERVATION WILL BE REINTRODUCED ONCE REPAIRS ARE COMPLETE.

SCZ027-030-031-034>040-042>050-091700-
...SOUTHEAST SOUTH CAROLINA...

CITY           SKY/WX    TMP DP  RH WIND       PRES   REMARKS
N CHARLESTON   MOSUNNY   47  24  40 W17G25    29.82F
WATERFRONT PRK   N/A     45  27  49 W8        29.68F
MOUNT PLEASANT FAIR      46  27  46 W16G23    29.82F
JOHNS ISLAND   FAIR      46  27  46 W16G22    29.83F
PINOPOLIS        N/A     43  28  56 W15       29.75S
MONCKS CORNER  CLOUDY    41  21  45 W7        29.82F
SUMMERVILLE    NOT AVBL
BEAUFORT MCAS  MOSUNNY   47  27  45 W13G23    29.85F
BEAUFORT ARPT  FAIR      46  28  49 W20       29.86S
HILTON HEAD IS MOSUNNY   45  28  53 SW17G29   29.87F
WALTERBORO     MOSUNNY   46  28  49 W17G23    29.84F
ALLENDALE      FAIR      45  27  49 W9G18     29.84S

...SOUTHERN MIDLANDS AND PEE DEE...

CITY           SKY/WX    TMP DP  RH WIND       PRES   REMARKS
GEORGETOWN     NOT AVBL
KINGSTREE      NOT AVBL
ORANGEBURG     PTSUNNY   43  23  45 W20G31    29.81F
BARNWELL       CLOUDY    43  28  56 W8G22     29.83F
AIKEN          CLOUDY    37  21  52 W18G32    29.84S WCI  27
MANNING        CLOUDY    41  23  48 SW12G29   29.81F
COLUMBIA       CLOUDY    41  23  48 W22       29.80F
SUMTER         PTSUNNY   41  22  47 W16G26    29.77F
FLORENCE       PTSUNNY   42  23  46 W20G26    29.77F
MYRTLE BEACH   PTSUNNY   43  21  42 W22G32    29.80F
N MYRTLE BEACH MOSUNNY   44  23  43 W20G30    29.77F

$$

GAZ063-065-086>088-099>101-113>116-118-119-134>141-150-091700-
...SOUTHEAST GEORGIA...

CITY           SKY/WX    TMP DP  RH WIND       PRES   REMARKS
SAVANNAH ARPT  PTSUNNY   44  23  43 W26G35    29.88F
HUNTER AAF     PTSUNNY   45  25  45 W22G30    29.86S
FORT STEWART   PTSUNNY   44  23  44 W22G32    29.88S
STATESBORO     PTSUNNY   48  22  36 W17G24    29.88F
SYLVANIA       MOSUNNY   45  32  61 W14G20    29.87S
CLAXTON        PTSUNNY   45  31  58 SW17G28   29.90S

...CSRA...CENTRAL AND FAR SOUTHEAST GEORGIA...

CITY           SKY/WX    TMP DP  RH WIND       PRES   REMARKS
THOMSON        CLOUDY    39  28  63 W9        29.89S WCI  33
AUGUSTA-BUSH   CLOUDY    41  23  48 W20G25    29.85S
AUGUSTA-DANIEL CLOUDY    40  22  48 W12G18    29.84S WCI  33
SWAINSBORO     CLOUDY    41  23  48 W18G28    29.88F
VIDALIA        CLOUDY    41  27  56 W10G21    29.91S
EASTMAN        CLOUDY    42  25  49 W14G22    29.96R
HAZLEHURST     PTSUNNY   44  24  44 W13G25    29.92F
ALMA           PTSUNNY   44  22  41 W20G32    29.94S
WAYCROSS       MOSUNNY   47  27  44 W18G33    29.96S
JESUP          CLOUDY    46  30  53 W18G29    29.94S
BAXLEY         CLOUDY    43  23  45 W15G25    29.93S
BRUNSWICK      MOSUNNY   45  28  53 W21G30    29.95R
SAINT SIMONS   SUNNY     46  25  43 W22G31    29.93S

$$

SCZ027-028-034-036>038-045-046-048>050-GAZ119-141-091700-
...LAKE AND SUPPLEMENTAL COASTAL OBSERVATIONS...

STATION/POSITION TIME  TEMP    WIND        PRES    WAVE   SWELL
                       AIR SEA DIR/SP/G            HT/PER HT/PER/DIR
                 (UTC) (F)     (DEG/KT/KT) (MB)    (FT/S) (FT/S/D)
WINYAH BAY       NOT AVBL
LAKE MURRAY      1500   39     270/ 22/ 30 1008.5S
ACE BASIN NERRS  1445   43     260/  7     1011.0
FORT PULASKI     1500   43 52  260/ 14/ 18 1012.2F
SAPELO ISLAND    1500   44     260/ 20     1013.0F

$$

ANZ835-935-AMZ111-154-330-350-352-354-370-450-454-472-091700-
...C-MAN AND BUOY OBSERVATIONS...

STATION/POSITION TIME  TEMP    WIND        PRES    WAVE   SWELL
                       AIR SEA DIR/SP/G            HT/PER HT/PER/DIR
                 (UTC) (F)     (DEG/KT/KT) (MB)    (FT/S) (FT/S/D)
BUOY 41004       1550   47 65  270/ 25/ 31 1009.3F   9/ 7   2/14
BUOY 41008       1550   45 55  270/ 23/ 27 1012.6F   4/ 5
FOLLY BEACH CMAN 1600   44     260/ 15/ 22 1010.0F
CAPERS NEARSHORE 1508   44     270/ 19/ 29 1009.7F
FRIPP NEARSHORE  1500   44     280/ 19/ 23 1011.1F


STATION/POSITION TIME  TEMP    WIND        PRES    WAVE   SWELL
                       AIR SEA DIR/SP/G            HT/PER HT/PER/DIR
                 (UTC) (F)     (DEG/KT/KT) (MB)    (FT/S) (FT/S/D)
5E ST. MARYS GA  1521      56                N/A     3/ 4   2/ 80/15
FRYING PAN BUOY  1500   45 60  260/ 27/ 35 1008.9R
BUOY 41025       1550   47 73  280/ 17/ 23 1003.9R  10/15  10/ 80/15
CAPE LOOKOUT NC  NOT AVBL
BUOY 41002       1550   56 69  270/ 31/ 39   N/A    17/ 9  11/320/15
BUOY 41010       1520   58 72              1015.2R
ST AUGUSTINE FL  1600   49 56  270/ 21/ 25 1015.9F


$$




USA.gov is the U.S. government's official web portal to all federal, state and local government web resources and services.